DW2819 Weather Reports


time (UTC)temp
F
wind
direction
speed
knots
gust
knots
rain 1hr
in
rain 24hr
in
rain mn
in
humidity
%
barometer
mb
20260906051859 50 314 0.0 1.7 0.00 0.00 0.00 81 1005.0
20260906051402 50 334 0.9 3.5 0.00 0.00 0.00 82 1005.1
20260906050902 50 276 0.0 3.5 0.00 0.00 0.00 82 1004.9
20260906050400 50 279 0.0 1.7 0.00 0.00 0.00 83 1004.9
20260906045903 50 303 0.0 2.6 0.00 0.00 0.00 83 1005.1
20260906045402 50 344 0.9 2.6 0.00 0.00 0.00 84 1005.0
20260906044859 50 295 0.9 3.5 0.00 0.00 0.00 85 1004.9
20260906043902 49 333 0.9 2.6 0.00 0.00 0.00 86 1005.0
20260906042903 49 334 0.9 1.7 0.00 0.00 0.00 87 1004.8
20260906041901 49 306 0.0 2.6 0.00 0.00 0.00 88 1004.6
20260906041359 49 272 0.0 2.6 0.00 0.00 0.00 88 1004.5
20260906040859 49 293 0.0 1.7 0.00 0.00 0.00 88 1004.5
20260906040401 49 330 0.0 2.6 0.00 0.00 0.00 88 1004.4
20260906035859 49 305 0.0 2.6 0.00 0.00 0.00 88 1004.3
20260906034859 49 329 0.0 1.7 0.00 0.00 0.00 89 1004.2
20260906034359 49 299 0.0 1.7 0.00 0.00 0.00 89 1004.1
20260906033900 49 354 0.0 2.6 0.00 0.00 0.00 89 1004.1
20260906033401 49 286 0.9 2.6 0.00 0.00 0.00 89 1004.0
20260906032859 49 326 0.0 2.6 0.00 0.00 0.00 89 1004.0
20260906032401 49 348 0.0 1.7 0.00 0.00 0.00 89 1003.9
20260906031902 49 317 0.9 1.7 0.00 0.00 0.00 89 1003.8
20260906031359 49 289 0.0 1.7 0.00 0.00 0.00 89 1003.8
20260906030856 49 0 0.0 1.7 0.00 0.00 0.00 89 1003.7
20260906030359 49 350 0.0 2.6 0.00 0.00 0.00 90 1003.7
20260906025359 49 343 0.0 0.9 0.00 0.00 0.00 90 1003.5
20260906024856 49 344 0.0 1.7 0.00 0.00 0.00 90 1003.5
20260906024403 49 0 0.0 1.7 0.00 0.00 0.00 90 1003.4
20260906023902 49 341 0.0 0.9 0.00 0.00 0.00 90 1003.3
20260906023402 49 341 0.0 0.9 0.00 0.00 0.00 90 1003.3
20260906022901 48 302 0.0 0.9 0.00 0.00 0.00 89 1003.2
20260906022359 48 0 0.0 0.9 0.00 0.00 0.00 89 1003.1
20260906021901 48 0 0.0 0.9 0.00 0.00 0.00 89 1003.2
20260906021402 48 330 0.0 0.0 0.00 0.00 0.00 89 1003.2
20260906020903 48 330 0.0 0.0 0.00 0.00 0.00 89 1003.1
20260906020359 48 331 0.0 0.9 0.00 0.00 0.00 89 1003.0
20260906015900 48 317 0.0 1.7 0.00 0.00 0.00 89 1003.0
20260906015400 48 303 0.0 1.7 0.00 0.00 0.00 89 1002.9
20260906013900 48 296 0.0 0.9 0.00 0.00 0.00 89 1002.6
20260906013359 48 298 0.0 1.7 0.00 0.00 0.00 89 1002.5
20260906012902 48 299 0.9 1.7 0.00 0.00 0.00 89 1002.5
20260906011859 48 336 0.0 0.9 0.00 0.00 0.00 89 1002.4
20260906011401 48 296 0.0 0.9 0.00 0.00 0.00 89 1002.5
20260906010901 48 303 0.0 3.5 0.00 0.00 0.00 89 1002.4
20260906005859 49 351 0.0 0.9 0.00 0.00 0.00 89 1002.2
20260906005340 49 317 0.0 0.0 0.00 0.00 0.00 89 1002.3
20260906004838 49 317 0.0 0.9 0.00 0.00 0.00 89 1002.1
20260906004338 49 317 0.0 0.9 0.00 0.00 0.00 89 1002.2
20260906003834 49 303 0.0 0.9 0.00 0.00 0.00 89 1002.1
20260906003337 49 331 0.0 0.9 0.00 0.00 0.00 89 1002.0
20260906002831 49 309 0.0 2.6 0.00 0.00 0.00 89 1001.9
20260906002332 49 340 0.0 2.6 0.00 0.00 0.00 89 1002.0
20260906001834 49 307 0.0 2.6 0.00 0.00 0.00 89 1001.9
20260906001330 49 296 0.0 0.9 0.00 0.00 0.00 89 1001.8
20260906000821 49 307 0.0 0.9 0.00 0.00 0.00 89 1001.9
20260906000314 49 317 0.0 0.0 0.00 0.00 0.00 89 1001.7
20260905235307 50 327 0.0 0.9 0.00 0.00 0.00 89 1001.6
20260905234259 50 302 0.0 1.7 0.00 0.00 0.00 89 1001.4
20260905233802 50 289 0.0 0.9 0.00 0.00 0.00 88 1001.5
20260905233300 50 292 0.0 0.9 0.00 0.00 0.00 88 1001.4
20260905232800 50 319 0.0 1.7 0.00 0.00 0.00 88 1001.3
20260905232257 50 321 0.0 2.6 0.00 0.00 0.00 88 1001.3
20260905231757 50 0 0.0 2.6 0.00 0.00 0.00 88 1001.3
20260905231259 50 0 0.0 3.5 0.00 0.00 0.00 88 1001.2
20260905230307 50 0 0.0 0.0 0.00 0.00 0.00 88 1001.1
20260905225259 51 0 0.0 0.9 0.00 0.00 0.00 88 1001.0
20260905224757 51 0 0.0 0.9 0.00 0.00 0.00 88 1001.0
20260905223759 51 299 0.0 1.7 0.00 0.00 0.00 88 1000.9
20260905223259 51 334 0.0 0.9 0.00 0.00 0.00 88 1000.8
20260905222758 51 333 0.0 0.9 0.00 0.00 0.00 88 1000.8
20260905222301 51 293 0.0 0.9 0.00 0.00 0.00 88 1000.8
20260905221758 51 314 0.0 0.9 0.00 0.00 0.00 88 1000.7
20260905221258 51 314 0.0 0.9 0.00 0.00 0.00 88 1000.7
20260905220802 51 298 0.0 0.9 0.00 0.00 0.00 88 1000.7
20260905220259 51 266 0.0 0.0 0.00 0.00 0.00 88 1000.7
20260905215800 51 266 0.0 0.0 0.00 0.00 0.00 88 1000.6
20260905215259 52 266 0.0 0.9 0.00 0.00 0.00 88 1000.7
20260905214755 52 266 0.0 0.9 0.00 0.00 0.00 88 1000.5
20260905214255 52 336 0.0 0.0 0.00 0.00 0.00 88 1000.5
20260905213756 52 334 0.0 0.0 0.00 0.00 0.00 88 1000.4
20260905213255 52 334 0.0 0.0 0.00 0.00 0.00 88 1000.4
20260905212758 52 333 0.0 0.9 0.00 0.00 0.00 88 1000.4
20260905212259 52 333 0.0 0.9 0.00 0.00 0.00 88 1000.3
20260905211803 52 319 0.0 0.9 0.00 0.00 0.00 88 1000.4
20260905210758 52 347 0.0 0.0 0.00 0.00 0.00 88 1000.2
20260905210259 52 347 0.0 0.0 0.00 0.00 0.00 88 1000.2
20260905205759 52 347 0.0 0.0 0.00 0.00 0.00 88 1000.1
20260905205259 52 347 0.0 0.0 0.00 0.00 0.00 88 1000.2
20260905204759 52 347 0.0 0.0 0.00 0.00 0.00 88 1000.1
20260905204259 52 261 0.0 0.0 0.00 0.00 0.00 88 1000.0
20260905203759 52 261 0.0 0.0 0.00 0.00 0.00 88 999.9
20260905203301 53 0 0.0 0.0 0.00 0.00 0.00 87 999.9
20260905202759 53 1 0.0 0.0 0.00 0.00 0.00 87 999.8
20260905202259 53 1 0.0 0.9 0.00 0.00 0.00 87 999.7
20260905201758 53 1 0.0 0.9 0.00 0.00 0.00 86 999.7
20260905201259 53 358 0.0 0.0 0.00 0.00 0.00 86 999.6
20260905200758 53 358 0.0 0.0 0.00 0.00 0.00 86 999.6
20260905200259 54 358 0.0 0.0 0.00 0.00 0.00 85 999.7
20260905194802 55 334 0.0 0.0 0.00 0.00 0.00 84 999.4
20260905194301 55 334 0.0 0.0 0.00 0.00 0.00 84 999.4
20260905193800 55 334 0.0 0.0 0.00 0.00 0.00 83 999.3
20260905192801 55 334 0.0 0.0 0.00 0.00 0.00 83 999.3
20260905192259 55 334 0.0 0.0 0.00 0.00 0.00 83 999.2
20260905191759 55 0 0.0 1.7 0.00 0.00 0.00 83 999.2
20260905190803 55 344 0.0 0.9 0.00 0.00 0.00 84 999.1
20260905190301 55 0 0.0 0.9 0.00 0.00 0.00 84 999.1
20260905185800 55 269 0.0 0.9 0.00 0.00 0.00 85 999.1
20260905185259 55 4 0.0 0.0 0.00 0.00 0.00 84 999.0
20260905184800 55 4 0.0 0.0 0.00 0.00 0.00 84 999.1
20260905184303 55 4 0.0 2.6 0.00 0.00 0.00 83 998.9
20260905183808 55 4 0.9 2.6 0.00 0.00 0.00 83 998.9
20260905182759 56 289 0.0 0.9 0.00 0.00 0.00 84 998.8
20260905182259 56 289 0.0 0.9 0.00 0.00 0.00 83 998.8
20260905181800 56 11 0.0 0.0 0.00 0.00 0.00 83 998.7
20260905180758 56 13 0.0 0.0 0.00 0.00 0.00 84 998.7
20260905180301 56 354 0.0 0.0 0.00 0.00 0.00 84 998.6
20260905175758 56 354 0.0 0.0 0.00 0.00 0.00 84 998.6
20260905173758 56 354 0.0 0.0 0.00 0.00 0.00 82 998.5
20260905173258 56 354 0.0 0.0 0.00 0.00 0.00 82 998.5
20260905172758 56 354 0.0 0.0 0.00 0.00 0.00 82 998.5
20260905172305 56 354 0.0 0.0 0.00 0.00 0.00 82 998.4
20260905171758 56 354 0.0 0.0 0.00 0.00 0.00 82 998.3
20260905170759 56 354 0.0 0.0 0.00 0.00 0.00 82 998.1
20260905170305 56 354 0.0 0.0 0.00 0.00 0.00 81 998.1
20260905165759 56 354 0.0 0.0 0.00 0.00 0.00 81 998.0
20260905165258 56 354 0.0 0.0 0.00 0.00 0.00 81 998.0
20260905164759 56 354 0.0 0.0 0.00 0.00 0.00 81 997.8
20260905164258 57 354 0.0 0.0 0.00 0.00 0.00 80 997.9
20260905163758 57 354 0.0 0.0 0.00 0.00 0.00 80 997.8
20260905163300 57 354 0.0 0.0 0.00 0.00 0.00 80 997.8
20260905162759 57 354 0.0 0.0 0.00 0.00 0.00 80 997.8
20260905162259 58 354 0.0 0.0 0.00 0.00 0.00 79 997.7
20260905161809 58 354 0.0 0.0 0.00 0.00 0.00 78 997.6
20260905161307 58 354 0.0 0.0 0.00 0.00 0.00 77 997.6
20260905160802 58 354 0.0 0.0 0.00 0.00 0.00 77 997.6
20260905160306 58 354 0.0 0.0 0.00 0.00 0.00 77 997.5
20260905155803 58 354 0.0 0.0 0.00 0.00 0.00 76 997.4
20260905155305 59 354 0.0 0.0 0.00 0.00 0.00 75 997.3
20260905154801 59 354 0.0 0.0 0.00 0.00 0.00 74 997.3
20260905154300 59 354 0.0 0.0 0.00 0.00 0.00 72 997.3
20260905153802 60 354 0.0 0.0 0.00 0.00 0.00 71 997.3
20260905153300 60 354 0.0 0.0 0.00 0.00 0.00 70 997.1
20260905152800 61 354 0.0 0.0 0.00 0.00 0.00 68 997.1
20260905152258 62 354 0.0 0.9 0.00 0.00 0.00 66 997.2
20260905151758 62 354 0.0 0.9 0.00 0.00 0.00 65 997.2
20260905151300 62 0 0.0 0.9 0.00 0.00 0.00 64 997.2
20260905150800 62 3 0.0 1.7 0.00 0.00 0.00 63 997.1
20260905150302 63 265 0.0 1.7 0.00 0.00 0.00 62 997.1
20260905145800 63 279 0.0 1.7 0.00 0.00 0.00 62 997.0
20260905144300 63 341 0.0 1.7 0.00 0.00 0.00 65 996.8
20260905143800 63 334 0.0 2.6 0.00 0.00 0.00 64 996.7
20260905143258 63 275 0.9 2.6 0.00 0.00 0.00 61 996.7
20260905142801 63 254 0.0 2.6 0.00 0.00 0.00 60 996.7
20260905141756 63 355 0.0 1.7 0.00 0.00 0.00 60 996.6
20260905140756 63 7 0.0 1.7 0.00 0.00 0.00 57 996.5
20260905140254 63 261 0.0 1.7 0.00 0.00 0.00 58 996.5
20260905135755 63 285 0.9 2.6 0.00 0.00 0.00 54 996.5
20260905135254 64 269 0.9 2.6 0.00 0.00 0.00 58 996.4
20260905134258 64 0 0.0 2.6 0.00 0.00 0.00 59 996.3
20260905133755 63 298 1.7 3.5 0.00 0.00 0.00 60 996.3
20260905132756 63 1 0.0 2.6 0.00 0.00 0.00 60 996.2
20260905132254 63 0 0.0 2.6 0.00 0.00 0.00 55 996.2
20260905131756 63 350 0.9 2.6 0.00 0.00 0.00 55 996.2
20260905131256 62 0 0.0 2.6 0.00 0.00 0.00 59 996.3
20260905130755 62 313 0.0 1.7 0.00 0.00 0.00 59 996.2
20260905130257 63 272 0.9 2.6 0.00 0.00 0.00 60 996.2
20260905125757 63 350 0.9 2.6 0.00 0.00 0.00 59 996.1
20260905125256 63 336 0.9 1.7 0.00 0.00 0.00 59 996.1
20260905124758 63 0 0.0 2.6 0.00 0.00 0.00 61 996.1
20260905124256 63 303 0.0 4.3 0.00 0.00 0.00 60 996.0
20260905123758 62 292 0.9 4.3 0.00 0.00 0.00 61 995.9
20260905123300 62 200 0.0 2.6 0.00 0.00 0.00 59 995.9
20260905121758 62 251 0.0 2.6 0.00 0.00 0.00 66 995.8
20260905121258 61 278 0.0 2.6 0.00 0.00 0.00 65 995.9
20260905120800 61 316 0.0 3.5 0.00 0.00 0.00 69 995.9
20260905115800 60 354 0.0 1.7 0.00 0.00 0.00 68 995.9
20260905115320 60 316 0.0 1.7 0.00 0.00 0.00 68 995.8
20260905114316 60 76 0.0 0.0 0.00 0.00 0.00 74 995.8
20260905112815 62 76 0.0 0.0 0.00 0.00 0.00 70 995.7
20260905111754 62 71 0.0 0.9 0.00 0.00 0.00 67 995.8
20260905111255 62 71 0.0 0.9 0.00 0.00 0.00 66 995.7
20260905110756 63 72 0.0 1.7 0.00 0.00 0.00 64 995.6
20260905110259 63 37 0.9 4.3 0.00 0.00 0.00 64 995.7
20260905105825 63 35 1.7 4.3 0.00 0.00 0.00 63 995.5
20260905104759 62 16 0.9 1.7 0.00 0.00 0.00 64 995.5
20260905104310 62 251 0.0 0.9 0.00 0.00 0.00 65 995.4
20260905102759 63 257 0.0 3.5 0.00 0.00 0.00 65 995.3
20260905102307 62 319 0.0 2.6 0.00 0.00 0.00 66 995.2
20260905101302 63 326 0.9 0.9 0.00 0.00 0.00 66 995.2
20260905100800 63 340 0.0 0.9 0.00 0.00 0.00 66 995.2
20260905100300 63 344 0.0 0.9 0.00 0.00 0.00 66 995.2
20260905095757 63 331 0.0 0.9 0.00 0.00 0.00 68 995.1
20260905095259 63 305 0.0 0.9 0.00 0.00 0.00 66 995.1
20260905094258 63 41 0.0 2.6 0.00 0.00 0.00 68 995.1
20260905093758 63 0 0.0 1.7 0.00 0.00 0.00 69 995.0
20260905093258 62 313 0.0 0.9 0.00 0.00 0.00 70 995.0
20260905092758 62 330 0.0 0.9 0.00 0.00 0.00 73 995.1
20260905092306 61 220 0.0 0.9 0.00 0.00 0.00 75 995.0
20260905091258 61 0 0.0 1.7 0.00 0.00 0.00 75 995.0
20260905090758 61 24 0.0 0.9 0.00 0.00 0.00 75 994.9
20260905090258 60 310 0.0 0.9 0.00 0.00 0.00 75 994.9
20260905085758 59 310 0.0 0.9 0.00 0.00 0.00 79 994.9
20260905085257 58 309 0.0 0.0 0.00 0.00 0.00 79 994.9
20260905084754 58 309 0.0 0.9 0.00 0.00 0.00 80 994.8
20260905084255 58 307 0.0 0.9 0.00 0.00 0.00 80 994.9
20260905083759 57 313 0.0 0.0 0.00 0.00 0.00 83 994.8
20260905083255 57 313 0.0 0.9 0.00 0.00 0.00 83 994.8
20260905082758 57 313 0.0 0.9 0.00 0.00 0.00 81 994.8
20260905082301 58 28 0.0 0.9 0.00 0.00 0.00 81 994.8
20260905081758 58 299 0.0 0.9 0.00 0.00 0.00 80 994.7
20260905081259 58 299 0.0 0.9 0.00 0.00 0.00 81 994.6
20260905080758 58 309 0.0 0.9 0.00 0.00 0.00 82 994.7
20260905075758 56 340 0.0 0.0 0.00 0.00 0.00 83 994.8
20260905075258 56 340 0.0 0.0 0.00 0.00 0.00 83 994.7
20260905074758 56 336 0.0 0.9 0.00 0.00 0.00 83 994.7
20260905074258 56 340 0.0 0.9 0.00 0.00 0.00 82 994.7
20260905073757 56 340 0.0 0.9 0.00 0.00 0.00 83 994.6
20260905073257 54 0 0.0 0.9 0.00 0.00 0.00 85 994.6
20260905072758 53 0 0.0 0.9 0.00 0.00 0.00 88 994.6
20260905072305 53 0 0.0 0.0 0.00 0.00 0.00 88 994.6
20260905071758 53 0 0.0 0.0 0.00 0.00 0.00 88 994.6
20260905071301 53 0 0.0 0.0 0.00 0.00 0.00 87 994.6
20260905070757 53 1 0.0 0.0 0.00 0.00 0.00 87 994.5
20260905070304 54 1 0.0 0.0 0.00 0.00 0.00 87 994.4
20260905065759 54 1 0.0 0.0 0.00 0.00 0.00 87 994.4
20260905065300 54 1 0.0 0.0 0.00 0.00 0.00 86 994.3
20260905064759 54 8 0.0 0.0 0.00 0.00 0.00 86 994.4
20260905064323 55 8 0.0 0.0 0.00 0.00 0.00 86 994.3
20260905063258 55 8 0.0 0.0 0.00 0.00 0.00 85 994.2
20260905062757 54 8 0.0 0.0 0.00 0.00 0.00 87 994.2
20260905062259 53 11 0.0 0.9 0.00 0.00 0.00 87 994.1
20260905061801 54 7 0.0 0.9 0.00 0.00 0.00 86 994.1
20260905060800 53 34 0.0 0.9 0.00 0.00 0.00 87 994.0
20260905060257 52 79 0.0 0.0 0.00 0.00 0.00 88 994.1
20260905055800 52 79 0.0 0.0 0.00 0.00 0.00 88 994.1
20260905055259 51 79 0.0 0.0 0.00 0.00 0.00 88 994.1
20260905054800 51 79 0.0 0.0 0.00 0.00 0.00 89 994.1
20260905054233 50 79 0.0 0.0 0.00 0.00 0.00 91 994.1
20260905053731 49 79 0.0 0.0 0.00 0.00 0.00 92 994.0
20260905053229 49 79 0.0 0.0 0.00 0.00 0.00 93 994.1
20260905052817 47 79 0.0 0.0 0.00 0.00 0.00 94 994.1